Date,TemperatureHighF,TemperatureAvgF,TemperatureLowF,DewpointHighF,DewpointAvgF,DewpointLowF,HumidityHigh,HumidityAvg,HumidityLow,PressureMaxIn,PressureMinIn,WindSpeedMaxMPH,WindSpeedAvgMPH,GustSpeedMaxMPH,PrecipitationSumIn
2013-6-1,71.0,67.2,62.0,67.0,62.1,55.0,92,84,76,29.91,29.78,9,-47,9,0.79
2013-6-2,68.0,61.4,56.0,62.0,54.6,-99.9,87,82,75,30.01,29.78,7,-64,8,0.02
2013-6-3,66.0,56.7,46.0,49.0,45.4,41.0,84,67,53,30.12,30.04,0,-66,14,0.02
2013-6-4,71.0,59.6,47.0,51.0,46.3,41.0,82,63,48,30.19,30.10,6,0,6,0.00
2013-6-5,76.0,65.1,55.0,56.0,49.7,44.0,69,58,47,30.14,29.93,3,0,7,0.00
2013-6-6,73.0,64.0,59.0,57.0,50.7,45.0,70,62,54,29.96,29.84,2,0,2,0.00
2013-6-7,71.0,63.5,59.0,57.0,53.2,51.0,80,70,59,29.93,29.87,3,0,3,0.00
2013-6-8,76.0,64.8,53.0,57.0,52.1,47.0,84,65,47,30.04,29.93,5,0,6,0.00
2013-6-9,79.0,70.3,64.0,63.0,58.9,52.0,81,68,47,30.06,29.89,7,0,7,0.00
2013-6-10,68.0,64.9,62.0,63.0,61.3,59.0,91,88,82,29.89,29.79,5,-169,5,0.82
2013-6-11,80.0,71.2,62.0,66.0,62.8,58.0,88,76,61,29.98,29.85,3,0,3,0.22
2013-6-12,69.0,67.8,67.0,64.0,63.2,62.0,86,85,83,29.91,29.88,0,0,0,0.22
2013-6-13,70.0,64.9,60.0,58.0,54.5,52.0,76,69,65,30.00,29.93,5,0,5,1.55
2013-6-14,74.0,63.5,56.0,61.0,55.5,51.0,86,76,62,30.12,29.99,2,-8,2,0.19
2013-6-15,71.0,64.7,58.0,65.0,58.8,53.0,88,81,70,30.13,29.96,2,-51,3,0.00
2013-6-16,79.0,71.9,66.0,69.0,64.8,61.0,88,79,70,29.98,29.94,9,-128,9,0.02
2013-6-17,81.0,74.7,69.0,69.0,65.9,63.0,90,75,57,29.99,29.91,3,-118,3,0.02
2013-6-18,76.0,72.1,65.0,65.0,61.3,58.0,83,69,62,30.04,29.93,2,-155,2,0.00
2013-6-19,76.0,69.2,58.0,59.0,55.3,51.0,77,62,53,30.16,30.04,2,-83,6,0.00
2013-6-20,79.0,63.8,59.0,63.0,55.3,52.0,79,74,58,30.21,30.16,0,-500,0,0.00
2013-6-22,81.0,76.4,72.0,71.0,67.0,62.0,77,73,63,30.13,30.03,4,0,7,0.00
2013-6-23,86.0,73.1,67.0,71.0,65.3,62.0,89,77,55,30.13,30.03,6,0,10,0.00
2013-6-24,84.0,74.0,68.0,71.0,66.2,62.0,88,77,62,30.14,30.00,6,-30,7,0.43
2013-6-25,86.0,74.1,66.0,73.0,66.7,62.0,91,79,61,30.04,29.87,5,-12,11,0.47
2013-6-26,76.0,70.9,64.0,72.0,66.6,61.0,91,86,73,29.94,29.77,4,0,4,0.85
2013-6-27,79.0,72.5,70.0,71.0,68.5,67.0,92,87,77,29.82,29.71,0,-184,3,0.87
2013-6-28,75.0,69.8,65.0,67.0,63.1,58.0,88,80,63,29.73,29.64,2,-65,3,0.04
2013-6-29,68.0,65.1,62.0,64.0,60.6,58.0,88,85,78,29.72,29.60,0,-85,0,0.04
2013-6-30,68.0,64.1,58.0,63.0,60.4,56.0,92,88,83,29.94,29.74,2,-92,2,0.72